TimePST,TemperatureF,Dew PointF,Humidity,Sea Level PressureIn,VisibilityMPH,Wind Direction,Wind SpeedMPH,Gust SpeedMPH,PrecipitationIn,Events,Conditions,WindDirDegrees,DateUTC
12:54 AM,46.0,39.9,79,30.15,10.0,SSW,9.2,-,N/A,,Overcast,200,2013-01-07 08:54:00
1:54 AM,46.0,39.9,79,30.15,10.0,South,12.7,-,0.00,,Overcast,180,2013-01-07 09:54:00
2:54 AM,45.0,42.1,90,30.15,10.0,South,13.8,-,0.00,,Overcast,180,2013-01-07 10:54:00
3:54 AM,46.0,42.1,86,30.14,10.0,South,16.1,-,N/A,,Overcast,180,2013-01-07 11:54:00
4:54 AM,46.0,42.1,86,30.12,10.0,South,15.0,-,N/A,,Overcast,170,2013-01-07 12:54:00
5:54 AM,46.0,43.0,89,30.12,10.0,South,15.0,-,N/A,,Overcast,180,2013-01-07 13:54:00
6:08 AM,46.4,42.8,87,30.11,10.0,South,13.8,-,0.00,Rain,Light Rain,170,2013-01-07 14:08:00
6:54 AM,46.0,44.1,93,30.13,10.0,South,13.8,-,0.00,Rain,Light Rain,190,2013-01-07 14:54:00
7:54 AM,46.0,44.1,93,30.14,9.0,South,9.2,-,0.00,,Overcast,180,2013-01-07 15:54:00
8:54 AM,46.9,45.0,93,30.16,5.0,South,11.5,-,0.01,,Overcast,170,2013-01-07 16:54:00
9:41 AM,46.4,44.6,93,30.18,5.0,South,12.7,-,N/A,,Overcast,170,2013-01-07 17:41:00
9:54 AM,48.0,45.0,89,30.20,6.0,South,11.5,-,N/A,,Overcast,170,2013-01-07 17:54:00
10:26 AM,48.2,46.4,93,30.21,7.0,South,12.7,-,N/A,,Overcast,170,2013-01-07 18:26:00
10:54 AM,50.0,46.4,87,30.21,9.0,South,15.0,19.6,N/A,,Overcast,180,2013-01-07 18:54:00
11:05 AM,50.0,46.4,87,30.21,10.0,South,13.8,-,N/A,,Mostly Cloudy,180,2013-01-07 19:05:00
11:24 AM,51.8,48.2,88,30.21,10.0,South,13.8,-,N/A,,Overcast,190,2013-01-07 19:24:00
11:54 AM,51.1,48.0,89,30.19,10.0,South,12.7,-,N/A,,Mostly Cloudy,190,2013-01-07 19:54:00
12:44 PM,55.4,48.2,77,30.18,10.0,SW,13.8,21.9,N/A,,Mostly Cloudy,220,2013-01-07 20:44:00
12:54 PM,55.0,48.0,77,30.19,10.0,SW,11.5,23.0,N/A,,Mostly Cloudy,230,2013-01-07 20:54:00
1:54 PM,54.0,48.0,80,30.21,10.0,WSW,13.8,-,N/A,,Mostly Cloudy,240,2013-01-07 21:54:00
2:54 PM,54.0,48.9,83,30.22,10.0,SW,8.1,-,N/A,,Mostly Cloudy,230,2013-01-07 22:54:00
3:54 PM,53.1,46.9,80,30.24,10.0,SW,9.2,-,N/A,,Overcast,220,2013-01-07 23:54:00
4:42 PM,51.8,46.4,82,30.25,10.0,West,3.5,-,N/A,,Overcast,260,2013-01-08 00:42:00
4:54 PM,51.1,48.0,89,30.25,10.0,SSW,4.6,-,N/A,,Overcast,210,2013-01-08 00:54:00
5:54 PM,51.1,48.0,89,30.24,10.0,SW,6.9,-,N/A,,Overcast,230,2013-01-08 01:54:00
6:08 PM,51.8,48.2,88,30.23,10.0,SSW,4.6,-,N/A,,Overcast,210,2013-01-08 02:08:00
6:54 PM,50.0,46.9,89,30.24,10.0,SSW,5.8,-,N/A,,Overcast,200,2013-01-08 02:54:00
7:19 PM,51.8,46.4,82,30.24,10.0,Calm,Calm,-,N/A,,Overcast,0,2013-01-08 03:19:00
7:39 PM,51.8,46.4,82,30.24,10.0,Calm,Calm,-,N/A,,Overcast,0,2013-01-08 03:39:00
7:54 PM,51.1,46.9,86,30.24,10.0,Calm,Calm,-,N/A,,Overcast,0,2013-01-08 03:54:00
8:28 PM,50.0,46.4,87,30.24,10.0,SSW,3.5,-,N/A,,Overcast,210,2013-01-08 04:28:00
8:54 PM,50.0,46.0,86,30.25,10.0,SSW,4.6,-,N/A,,Overcast,200,2013-01-08 04:54:00
9:54 PM,48.9,46.9,93,30.26,10.0,SSW,3.5,-,N/A,,Overcast,200,2013-01-08 05:54:00
10:54 PM,48.9,46.0,90,30.26,10.0,Calm,Calm,-,N/A,,Overcast,0,2013-01-08 06:54:00
11:54 PM,48.9,46.0,90,30.25,10.0,South,4.6,-,N/A,,Overcast,170,2013-01-08 07:54:00